Domov               UVHVVR             MKGP            O straneh              
ZDRAVSTVENO VARSTVO RASTLIN
  MREŽA AGROMET. POSTAJ
 ► PROGNOSTIČNA OBVESTILA
AGROMETEOROLOŠKI PODATKI -
ARSO
OBVLADOVANJE TVEGANJ ZARADI
NEUGODNIH VREMENSKIH RAZMER
  ► NARAVNE NESREČE
  ► SUŠA/MOČA
  ► NAMAKANJE
  ► ŽLED (gozdarstvo)
KARTOGRAFSKI PRIKAZI
SPLETNE POVEZAVE
PROJEKTI IN PUBLIKACIJE

AGROMETEOROLOŠKA MREŽA: VREMENSKE POSTAJE IN FENOLOŠKA OPAZOVANJA

Pregled podatkov za lokacijo Črmljenšak, meteorološka postaja 25166

Pregled senzorjev na lokaciji

ID Ime Zadnja
vrednost
Datum
zadnje
spremembe
Tip
senzorja
4041 Omočenost lista (U) 9 U 16.12.2017 19:00 A730WET
4043 Padavine (mm) 0 mm 16.12.2017 19:00 Generic 0.2 mm
4048 Temperatura 2 m (°C) 0,68 °C 16.12.2017 19:00 Generic -40 - +60 °C
4049 Relativna vlaga 2 m (% RH) 96 % RH 16.12.2017 19:00 Generic 0 - 100 %

Pregled podatkov zadnjih 24 ur

Zap.
št.
Datum in čas Črmljenšak
Omočenost
lista
Padavine Relativna
vlaga
2
m
Temperatura
2
m
0 16.12.2017 19:00 9 0 96 0,68
1 16.12.2017 18:30 7 0 95,38 0,78
2 16.12.2017 18:00 4 0 92,01 0,98
3 16.12.2017 17:30 2 0 90,55 0,93
4 16.12.2017 17:00 0 0 85,79 1,59
5 16.12.2017 16:30 0 0 79,83 2,34
6 16.12.2017 16:00 0 0 74,51 2,91
7 16.12.2017 15:30 0 0 71,6 3,47
8 16.12.2017 15:00 0 0 70,43 3,81
9 16.12.2017 14:30 0 0 68,64 4,03
10 16.12.2017 14:00 0 0 70,45 4,2
11 16.12.2017 13:30 0 0 72,19 4,08
12 16.12.2017 13:00 0 0 73,21 3,96
13 16.12.2017 12:30 0 0 75,9 3,91
14 16.12.2017 12:00 0 0 73,97 4,22
15 16.12.2017 11:30 0 0 76,24 3,86
16 16.12.2017 11:00 0 0 76,95 3,76
17 16.12.2017 10:30 0 0 81,68 2,78
18 16.12.2017 10:00 0 0 86,18 2,39
19 16.12.2017 09:30 0 0 89,13 2,05
20 16.12.2017 09:00 2 0 90,74 1,76
21 16.12.2017 08:30 10 0 92,55 1,54
22 16.12.2017 08:00 10 0 95,12 1,39
23 16.12.2017 07:30 10 0 93,82 1,51
24 16.12.2017 07:00 10 0 97,53 1,32
25 16.12.2017 06:30 9 0 99,66 1,12
26 16.12.2017 06:00 9 0 99,85 1,05
27 16.12.2017 05:30 8 0 99,83 1,07
28 16.12.2017 05:00 8 0 99,54 1,07
29 16.12.2017 04:30 7 0 96,51 1,32
30 16.12.2017 04:00 7 0 91,7 1,68
31 16.12.2017 03:30 9 0 91,67 1,76
32 16.12.2017 03:00 6 0 93,11 1,61
33 16.12.2017 02:30 6 0 92,53 1,59
34 16.12.2017 02:00 6 0,2 94,38 1,49
35 16.12.2017 01:30 5 0 97,12 1,32
36 16.12.2017 01:00 4 0,2 99,07 1,25
37 16.12.2017 00:30 4 0,2 99,93 1,27
38 16.12.2017 00:00 4 0 99,93 1,27
39 15.12.2017 23:30 4 0,2 99,93 1,2
40 15.12.2017 23:00 3 0 99,93 0,93
41 15.12.2017 22:30 3 0,2 99,93 0,61
42 15.12.2017 22:00 3 0,6 99,93 0,27
43 15.12.2017 21:30 6 1 99,93 0,39
44 15.12.2017 21:00 4 1,4 99,93 0,93
45 15.12.2017 20:30 6 1,6 99,93 1,88
46 15.12.2017 20:00 4 1,2 99,93 1,98
© 2011 Ministrstvo za kmetijstvo, gozdarstvo in prehrano. Vse pravice pridržane.